Regional Weather Roundup
Issued by NWS

Home | Current Version | Previous Version | Text Only | Print | Product List | Glossary On
Versions: 1 2 3 4 5 6 7 8 9 10 11 12 13 14 15 16 17 18 19 20 21 22 23 24 25 26 27 28 29 30 31 32 33 34 35 36 37 38 39 40 41 42 43 44 45 46 47 48 49 50
000
ASUS43 KDTX 220310
RWRMI
MICHIGAN HOURLY REGIONAL WEATHER ROUNDUP
NATIONAL WEATHER SERVICE DETROIT/PONTIAC MI
ISSUED BY NATIONAL WEATHER SERVICE GRAND RAPIDS MI
1100 PM EDT MON AUG 21 2017

NOTE: "FAIR" INDICATES FEW OR NO CLOUDS BELOW 12,000 FEET WITH NO
SIGNIFICANT WEATHER AND/OR OBSTRUCTION TO VISIBILITY.

MIZ047>049-052>055-059>063-066>070-074>076-081>083-220400-
SOUTHEAST LOWER MICHIGAN

CITY           SKY/WX    TMP DP  RH WIND       PRES   REMARKS
ADRIAN         CLOUDY    74  70  87 SW7       30.00F
ALMA           MOCLDY    75  64  68 SW14G20   29.95F
ANN ARBOR      MOCLDY    75  69  81 W6        29.98F
BAD AXE        CLOUDY    75  65  70 S8        29.94F
DETROIT CITY   CLOUDY    79  73  82 S6        29.96F
DETROIT        CLOUDY    77  71  82 S7        29.97F
FLINT          PTCLDY    79  68  69 SW12G21   29.95F
GROSSE ILE     CLOUDY    76  74  93 S8        29.96F
HILLSDALE      CLOUDY    73  68  83 SW6       30.01S
HOWELL         LGT RAIN  76  69  79 SW12      29.98F

CITY           SKY/WX    TMP DP  RH WIND       PRES   REMARKS
JACKSON        CLOUDY    73  67  81 W13G25    30.02S
LANSING        LGT RAIN  71  66  84 SW12      29.99F
MASON          RAIN      74  68  80 W8G23     30.01F
MONROE         CLOUDY    76  70  82 CALM      29.97F
MT. CLEMENS    MOCLDY    76  75  96 S9        29.94F
PONTIAC        CLOUDY    78  69  73 SW9       29.97F
PORT HOPE        N/A     76  64  66 S7        29.91F
PORT HURON     MOCLDY    75  70  83 S7        29.96F
TRI CITIES     CLOUDY    79  72  79 SW14G20   29.93F
YPSILANTI      PTCLDY    77  70  79 SW8       29.98F
$$
MIZ043>046-050>051-056>058-064>065-071>073-077>080-220400-
SOUTHWEST LOWER MICHIGAN

CITY           SKY/WX    TMP DP  RH WIND       PRES   REMARKS
BATTLE CREEK   CLOUDY    70  69  97 SE5       29.99F
BENTON HARBOR  PTCLDY    77  70  79 S7        29.94F
BIG RAPIDS     PTCLDY    73  67  84 SW7       29.93F
COLDWATER      CLOUDY    77  70  78 N6        30.01R
HOLLAND        PTCLDY    70  67  90 S6        29.95F
GRAND RAPIDS   CLOUDY    71  70  96 S7        29.95F
KALAMAZOO      CLOUDY    71  67  87 SE3       29.98F
MARSHALL       LGT RAIN  68  68  99 NE5       30.00F
MOUNT PLEASANT MOCLDY    78  70  75 SW9       29.93S
MUSKEGON       CLOUDY    77  70  79 S10       29.92F
STURGIS        MOCLDY    74  71  88 NE5       29.99F
$$
MIZ016>042-220400-
NORTHERN LOWER MICHIGAN

CITY           SKY/WX    TMP DP  RH WIND       PRES   REMARKS
ALPENA         CLOUDY    74  71  91 S6        29.86F
BEAVER ISLAND  PTCLDY    68  66  93 CALM      29.86F
BELLAIRE       CLOUDY    69  67  93 CALM      29.87F
CADILLAC       PTCLDY    73  69  86 SW10      29.92F
CHARLEVOIX     MOCLDY    71  71 100 CALM      29.89F
GAYLORD        MOCLDY    71  68  90 SW8       29.90F
HOUGHTON LAKE  MOCLDY    75  69  81 SW10      29.92F
MANISTEE       PTCLDY    71  69  93 VRB3      29.88F
OSCODA         CLOUDY    77  68  73 S9G17     29.88F
PELLSTON       LGT RAIN  67  66  97 CALM      29.87F
TRAVERSE CITY  CLEAR     75  69  81 SW6       29.85F
LUDINGTON      PTCLDY    72  68  88 S6        29.88F
$$
MIZ007>008-015-220400-
EASTERN UPPER MICHIGAN

CITY           SKY/WX    TMP DP  RH WIND       PRES   REMARKS
KINROSS        LGT RAIN  66  64  94 SE12G20   29.85F FOG
MACKINAC ISLAN LGT RAIN  67  67 100 S7        29.85F
NEWBERRY       CLOUDY    67  66  97 S7        29.84F
S. S. MARIE    CLOUDY    70  66  87 SE5       29.84F
$$
MIZ004>006-011>014-085-220400-
CENTRAL UPPER MICHIGAN

CITY           SKY/WX    TMP DP  RH WIND       PRES   REMARKS
MANISTIQUE     CLOUDY    67  61  81 S5        29.83F HAZE
ESCANABA       CLOUDY    70  68  93 SE3       29.81F
MENOMINEE      MOCLDY    73  68  84 SW10      29.81F
SAWYER-GWINN   CLOUDY    63  62  97 S3        29.82F
$$
MIZ001>003-009>011-084-220400-
WESTERN UPPER MICHIGAN

CITY           SKY/WX    TMP DP  RH WIND       PRES   REMARKS
IRON MOUNTAIN  CLOUDY    67  64  90 CALM      29.82F
HOUGHTON       RAIN      59  56  89 E10       29.81F
COPPER HARBOR    N/A     61  56  83 CALM      29.80F
IRONWOOD       CLOUDY    68  64  87 SW5       29.80F
$$

ABBREVIATIONS USED IN REMARKS
   TC - TEMPERATURE IN CELSIUS
  WCI - WIND CHILL INDEX
   HX - HEAT INDEX
  VSB - VISIBILITY





USA.gov is the U.S. government's official web portal to all federal, state and local government web resources and services.